Regional Weather Roundup
Issued by NWS Jackson, KY

Home | Current Version | Previous Version | Graphics & Text | Print | Product List | Glossary On
Versions: 1 2 3 4 5 6 7 8 9 10 11 12 13 14 15 16 17 18 19 20 21 22 23 24 25 26 27 28 29 30 31 32 33 34 35 36 37 38 39 40 41 42 43 44 45 46 47 48 49 50
088
ASUS43 KJKL 270510
RWRJKL

EAST KENTUCKY HOURLY WEATHER ROUNDUP
NATIONAL WEATHER SERVICE JACKSON KY
100 AM EDT TUE JUN 27 2017

NOTE: "FAIR" INDICATES FEW OR NO CLOUDS BELOW 12,000 FEET WITH
NO SIGNIFICANT WEATHER AND/OR OBSTRUCTIONS TO VISIBILITY.

* THESE REPORTS ARE NOT UNDER NWS QUALITY CONTROL AND MAY NOT
  REPORT WEATHER SUCH AS PRECIPITATION AND FOG.

KYZ079-080-083-085-087-088-110-112-115-119-120-270600
...EASTERN KENTUCKY...

CITY           SKY/WX    TMP DP  RH WIND       PRES   REMARKS
JACKSON        CLOUDY    62  52  69 CALM      30.11R
LONDON         CLOUDY    61  54  77 CALM      30.12R
SOMERSET*      MOCLDY    61  54  77 CALM      30.13R
MONTICELLO*    CLOUDY    61  58  90 N10       30.14R
WILLIAMSBURG*  CLOUDY    57  57 100 CALM      30.11F
MIDDLESBORO*   CLOUDY    57  55  92 CALM      30.12F
HARLAN APT*    CLOUDY    57  54  88 CALM      30.13F
PIKE CO APT*     N/A     62  51  68 CALM      30.11R
BIG SANDY APT* CLOUDY    63  52  67 SW3       30.10R
MOREHEAD APT*  CLOUDY    66  50  55 CALM      30.12R HAZE
ASHLAND*       CLOUDY    64  55  72 CALM      30.05S
$$

KYZ035-036-041-042-044-050-067-078-099-270600
...CENTRAL KENTUCKY...

CITY           SKY/WX    TMP DP  RH WIND       PRES   REMARKS
MT STERLING*   CLOUDY    59  55  88 NW3       30.12S
FLEMING/MASON* CLOUDY    64  47  53 NW8       30.10S
DANVILLE*      CLEAR     59  52  77 CALM      30.13S
LEXINGTON      MOCLDY    64  49  57 CALM      30.12R
FRANKFORT      MOCLDY    63  50  62 CALM      30.10R
LOUISVILLE     MOCLDY    66  47  50 W5        30.11R
LEBANON*         N/A    N/A N/A N/A MISG        N/A
GLASGOW*       PTCLDY    62  58  86 CALM      30.12R
BOWLING GREEN  PTCLDY    66  58  75 CALM      30.11S
$$

KYZ091>093-OHZ055-061-077-WVZ005-015-034-035-042-270600
...SOUTHERN OHIO/WEST VIRGINIA...

CITY           SKY/WX    TMP DP  RH WIND       PRES   REMARKS
COVINGTON      PTCLDY    60  49  66 SW5       30.10R
COLUMBUS       MOCLDY    59  55  87 SE3       30.05S
DAYTON         PTCLDY    55  50  83 SW9       30.08R
WILMINGTON     CLEAR     54  52  93 CALM      30.08R
HUNTINGTON     CLOUDY    65  53  65 SW5       30.07R
CHARLESTON     CLOUDY    60  53  77 CALM      30.07S
PINEVILLE*     PTCLDY    53  51  94 MISG      30.16F
BECKLEY        CLEAR     53  48  83 S5        30.13F
BLUEFIELD      CLEAR     54  47  77 SW5       30.16R
LOGAN CO APT*    N/A     61  52  72 CALM      30.10S
$$

VAZ002-007-008-TNZ017-027-036-066-071-270600
...SOUTHWEST VIRGINIA/EAST TENNESSEE...

CITY           SKY/WX    TMP DP  RH WIND       PRES   REMARKS
WISE*          CLOUDY    57  50  77 CALM      30.16S
JONESVILLE*      N/A     55  54  94 CALM      30.14
ABINGDON*      CLEAR     61  55  80 CALM      30.13F
BRISTOL        PTCLDY    60  57  89 CALM      30.11
MORRISTOWN*    MOCLDY    61  57  88 CALM      30.11R
SEVIERVILLE*   CLEAR     59  55  88 CALM      30.11S
KNOXVILLE      MOCLDY    64  57  78 CALM      30.11R
LAFOLLETTE*    CLEAR     59  57  94 CALM      30.15F
OAK RIDGE      PTCLDY    60  56  86 CALM      30.13S
CROSSVILLE     CLOUDY    58  55  90 CALM      30.15S
NASHVILLE      CLOUDY    68  56  65 S5        30.11R
$$

...KEY TO REMARKS...
VSB - VISIBILITY IN MILES
WCI - WIND CHILL INDEX
HX  - HEAT INDEX

$$




USA.gov is the U.S. government's official web portal to all federal, state and local government web resources and services.